| time (UTC) | temp C | wind direction | speed KPH | gust KPH | rain 1hr cm | rain 24hr cm | rain mn cm | humidity % | barometer mb |
| 20260502201528 | 18 | 360 | 3.2 | 17.7 | 0.00 | 0.00 | 0.00 | 17 | 1012.9 |
| 20260502200027 | 18 | 360 | 0.0 | 12.9 | 0.00 | 0.00 | 0.00 | 16 | 1013.1 |
| 20260502194524 | 18 | 360 | 1.6 | 9.7 | 0.00 | 0.00 | 0.00 | 22 | 1013.3 |
| 20260502193024 | 18 | 360 | 1.6 | 8.0 | 0.00 | 0.00 | 0.00 | 20 | 1013.5 |
| 20260502191521 | 17 | 360 | 1.6 | 14.5 | 0.00 | 0.00 | 0.00 | 21 | 1013.9 |
| 20260502190018 | 17 | 360 | 3.2 | 9.7 | 0.00 | 0.00 | 0.00 | 20 | 1014.2 |
| 20260502184526 | 17 | 360 | 1.6 | 14.5 | 0.00 | 0.00 | 0.00 | 19 | 1014.5 |
| 20260502183026 | 17 | 360 | 1.6 | 8.0 | 0.00 | 0.00 | 0.00 | 22 | 1014.7 |
| 20260502181514 | 16 | 360 | 0.0 | 12.9 | 0.00 | 0.00 | 0.00 | 19 | 1014.9 |
| 20260502163053 | 15 | 126 | 0.0 | 4.8 | 0.00 | 0.00 | 0.00 | 26 | 1016.0 |
| 20260502161541 | 16 | 340 | 0.0 | 4.8 | 0.00 | 0.00 | 0.00 | 21 | 1016.2 |
| 20260502151524 | 15 | 360 | 0.0 | 0.0 | 0.00 | 0.00 | 0.00 | 29 | 1016.8 |
| 20260502123037 | 3 | 312 | 0.0 | 0.0 | 0.00 | 0.00 | 0.00 | 58 | 1017.5 |
| 20260502121544 | 2 | 312 | 0.0 | 0.0 | 0.00 | 0.00 | 0.00 | 57 | 1017.4 |
| 20260502114528 | 2 | 311 | 0.0 | 0.0 | 0.00 | 0.00 | 0.00 | 57 | 1017.3 |
| 20260502113027 | 2 | 311 | 0.0 | 0.0 | 0.00 | 0.00 | 0.00 | 58 | 1017.3 |
| 20260502111527 | 3 | 311 | 0.0 | 0.0 | 0.00 | 0.00 | 0.00 | 56 | 1017.3 |
| 20260502110021 | 3 | 311 | 0.0 | 0.0 | 0.00 | 0.00 | 0.00 | 54 | 1017.1 |
| 20260502104518 | 4 | 311 | 0.0 | 0.0 | 0.00 | 0.00 | 0.00 | 52 | 1017.1 |
| 20260502103014 | 5 | 266 | 0.0 | 0.0 | 0.00 | 0.00 | 0.00 | 49 | 1017.1 |
| 20260502101513 | 5 | 266 | 0.0 | 0.0 | 0.00 | 0.00 | 0.00 | 48 | 1017.0 |
| 20260502091504 | 6 | 257 | 0.0 | 3.2 | 0.00 | 0.00 | 0.00 | 45 | 1016.6 |
| 20260502070056 | 7 | 255 | 0.0 | 0.0 | 0.00 | 0.00 | 0.00 | 45 | 1017.6 |
| 20260502064548 | 7 | 255 | 0.0 | 0.0 | 0.00 | 0.00 | 0.00 | 45 | 1017.7 |
| 20260502063045 | 7 | 257 | 0.0 | 0.0 | 0.00 | 0.00 | 0.00 | 44 | 1017.8 |
| 20260502061542 | 8 | 257 | 0.0 | 3.2 | 0.00 | 0.00 | 0.00 | 41 | 1017.7 |
| 20260502060038 | 8 | 304 | 0.0 | 0.0 | 0.00 | 0.00 | 0.00 | 40 | 1017.7 |
| 20260502054541 | 8 | 309 | 0.0 | 0.0 | 0.00 | 0.00 | 0.00 | 38 | 1017.7 |
| 20260502053037 | 9 | 312 | 0.0 | 0.0 | 0.00 | 0.00 | 0.00 | 37 | 1017.6 |
| 20260502051543 | 10 | 312 | 0.0 | 0.0 | 0.00 | 0.00 | 0.00 | 37 | 1017.6 |
| 20260502050038 | 10 | 311 | 0.0 | 0.0 | 0.00 | 0.00 | 0.00 | 35 | 1017.6 |
| 20260502044538 | 10 | 327 | 0.0 | 0.0 | 0.00 | 0.00 | 0.00 | 36 | 1017.6 |
| 20260502043035 | 10 | 360 | 0.0 | 0.0 | 0.00 | 0.00 | 0.00 | 36 | 1017.7 |
| 20260502041554 | 10 | 360 | 0.0 | 0.0 | 0.00 | 0.00 | 0.00 | 35 | 1017.6 |
| 20260502040036 | 10 | 360 | 0.0 | 0.0 | 0.00 | 0.00 | 0.00 | 34 | 1017.5 |
| 20260502034534 | 10 | 360 | 0.0 | 0.0 | 0.00 | 0.00 | 0.00 | 35 | 1017.4 |
| 20260502033040 | 10 | 360 | 0.0 | 0.0 | 0.00 | 0.00 | 0.00 | 34 | 1017.0 |
| 20260502031533 | 11 | 360 | 0.0 | 0.0 | 0.00 | 0.00 | 0.00 | 32 | 1016.8 |
| 20260502030033 | 11 | 360 | 0.0 | 0.0 | 0.00 | 0.00 | 0.00 | 31 | 1016.6 |
| 20260502024534 | 11 | 25 | 0.0 | 0.0 | 0.00 | 0.00 | 0.00 | 30 | 1016.3 |
| 20260502023032 | 12 | 360 | 0.0 | 0.0 | 0.00 | 0.00 | 0.00 | 27 | 1016.1 |
| 20260502021531 | 12 | 360 | 0.0 | 0.0 | 0.00 | 0.00 | 0.00 | 26 | 1015.8 |
| 20260502020031 | 13 | 26 | 0.0 | 0.0 | 0.00 | 0.00 | 0.00 | 24 | 1015.7 |
| 20260502014533 | 13 | 360 | 0.0 | 6.4 | 0.00 | 0.00 | 0.00 | 24 | 1015.6 |
| 20260502013031 | 14 | 348 | 0.0 | 1.6 | 0.00 | 0.00 | 0.00 | 21 | 1015.5 |
| 20260502011530 | 14 | 360 | 0.0 | 4.8 | 0.00 | 0.00 | 0.00 | 22 | 1015.3 |
| 20260502010029 | 15 | 24 | 0.0 | 1.6 | 0.00 | 0.00 | 0.00 | 21 | 1015.3 |
| 20260502004529 | 15 | 360 | 0.0 | 8.0 | 0.00 | 0.00 | 0.00 | 22 | 1015.2 |
| 20260502003028 | 16 | 9 | 0.0 | 8.0 | 0.00 | 0.00 | 0.00 | 20 | 1015.2 |
| 20260502001527 | 16 | 280 | 0.0 | 1.6 | 0.00 | 0.00 | 0.00 | 19 | 1015.2 |
| 20260502000025 | 16 | 277 | 0.0 | 4.8 | 0.00 | 0.00 | 0.00 | 19 | 1015.3 |
| 20260501234524 | 15 | 360 | 0.0 | 16.1 | 0.00 | 0.00 | 0.00 | 21 | 1015.3 |
| 20260501233025 | 15 | 360 | 4.8 | 12.9 | 0.00 | 0.00 | 0.00 | 22 | 1015.3 |
| 20260501231523 | 15 | 328 | 0.0 | 8.0 | 0.00 | 0.00 | 0.00 | 21 | 1015.4 |
| 20260501230027 | 16 | 360 | 1.6 | 12.9 | 0.00 | 0.00 | 0.00 | 20 | 1015.5 |
| 20260501224521 | 15 | 360 | 0.0 | 8.0 | 0.00 | 0.00 | 0.00 | 20 | 1015.6 |
| 20260501223022 | 15 | 360 | 0.0 | 8.0 | 0.00 | 0.00 | 0.00 | 23 | 1015.5 |
| 20260501221521 | 15 | 14 | 0.0 | 14.5 | 0.00 | 0.00 | 0.00 | 21 | 1015.7 |
| 20260501220016 | 16 | 178 | 0.0 | 3.2 | 0.00 | 0.00 | 0.00 | 21 | 1015.9 |
| 20260501214515 | 14 | 360 | 1.6 | 19.3 | 0.00 | 0.00 | 0.00 | 23 | 1016.2 |
| 20260501213012 | 15 | 360 | 0.0 | 1.6 | 0.00 | 0.00 | 0.00 | 26 | 1016.4 |
| 20260501211510 | 13 | 5 | 1.6 | 12.9 | 0.00 | 0.00 | 0.00 | 27 | 1016.6 |
| 20260501210009 | 14 | 360 | 1.6 | 17.7 | 0.00 | 0.00 | 0.00 | 25 | 1016.7 |
| 20260501204509 | 14 | 68 | 0.0 | 8.0 | 0.00 | 0.00 | 0.00 | 26 | 1016.8 |
| 20260501203006 | 15 | 44 | 0.0 | 12.9 | 0.00 | 0.00 | 0.00 | 29 | 1017.0 |